Weather History for Wheaton NDB, MN

Change the Weather History Date:

Thursday, February 20, 2014

  Actual Average Record
Temperature  
Mean Temperature -3 °C -  
Max Temperature 4 °C 0 °C 11 °C (1981)
Min Temperature -11 °C -12 °C -31 °C (2008)
Degree Days  
Heating Degree Days 38    
Moisture  
Dew Point -4 °C    
Average Humidity 82    
Maximum Humidity 93    
Minimum Humidity 73    
Precipitation  
Precipitation 0.00 mm - - ()
Sea Level Pressure  
Sea Level Pressure 1003 hPa    
Wind  
Wind Speed 16 km/h (WNW)    
Max Wind Speed 45 km/h    
Max Gust Speed 60 km/h    
Visibility 15 kilometers    
Events Snow    
Averages and records for this station are not official NWS values.
T = Trace of Precipitation, MM = Missing Value Source: NWS Daily Summary

Daily Weather History Graph

Daily Weather History Graph

Search for Another Location

Airport:

Trip Planner

Search our weather history database for the weather conditions in past years. The results will help you decide how hot, cold, wet, or windy it might be!

Date:

Astronomy

Feb. 20, 2014 Rise Set
Actual Time 7:20 AM CST 6:00 PM CST
Civil Twilight 6:49 AM CST 6:30 PM CST
Nautical Twilight 6:15 AM CST 7:05 PM CST
Astronomical Twilight 5:41 AM CST 7:39 PM CST
Moon No Moon Rise 9:45 AM CST (2/20)
Length of Visible Light 11h 40m
Length of Day
10h 39m
Waning Gibbous, 70% of the Moon is Illuminated
Feb 20
Waning Gibbous
Feb 22
Last Quarter
Mar 1
New
Mar 8
First Quarter
Mar 16
Full

Hourly Weather History & Observations

Time (CST) Temp. Windchill Dew Point Humidity Pressure Visibility Wind Dir Wind Speed Gust Speed Precip Events Conditions
12:14 AM 3.0 °C 0.0 °C 1.0 °C 87% 1000.2 hPa 16.1 km West 11.1 km/h / 3.1 m/s - N/A   Clear
12:34 AM 3.0 °C 0.0 °C 1.0 °C 87% 1000.6 hPa 16.1 km WSW 11.1 km/h / 3.1 m/s - N/A   Scattered Clouds
12:54 AM 3.0 °C -0.3 °C 0.0 °C 81% 1000.9 hPa 16.1 km WSW 13.0 km/h / 3.6 m/s - N/A   Scattered Clouds
1:14 AM 2.0 °C -0.7 °C 0.0 °C 87% 1000.9 hPa 16.1 km West 9.3 km/h / 2.6 m/s - N/A   Scattered Clouds
1:34 AM 2.0 °C -1.5 °C 0.0 °C 87% 1001.2 hPa 16.1 km WSW 13.0 km/h / 3.6 m/s - N/A   Scattered Clouds
1:54 AM 3.0 °C -0.3 °C 1.0 °C 87% 1000.9 hPa 16.1 km West 13.0 km/h / 3.6 m/s - N/A   Mostly Cloudy
2:14 AM 3.0 °C 1.0 °C 1.0 °C 87% 1000.9 hPa 16.1 km West 7.4 km/h / 2.1 m/s - N/A   Scattered Clouds
2:34 AM 3.0 °C 1.6 °C 1.0 °C 87% 1000.9 hPa 16.1 km West 5.6 km/h / 1.5 m/s - N/A   Scattered Clouds
2:54 AM 3.0 °C 1.6 °C 1.0 °C 87% 1000.9 hPa 16.1 km West 5.6 km/h / 1.5 m/s - N/A   Mostly Cloudy
3:14 AM 3.0 °C 1.0 °C 1.0 °C 87% 1001.2 hPa 16.1 km WSW 7.4 km/h / 2.1 m/s - N/A   Overcast
3:34 AM 3.0 °C 0.0 °C 1.0 °C 87% 1001.2 hPa 16.1 km WSW 11.1 km/h / 3.1 m/s - N/A   Overcast
3:54 AM 4.0 °C 2.1 °C 1.0 °C 81% 1001.2 hPa 16.1 km West 7.4 km/h / 2.1 m/s - N/A   Overcast
4:14 AM 4.0 °C 2.1 °C 1.0 °C 81% 1001.2 hPa 16.1 km West 7.4 km/h / 2.1 m/s - N/A   Overcast
4:34 AM 4.0 °C 2.8 °C 0.0 °C 75% 1001.2 hPa 16.1 km WSW 5.6 km/h / 1.5 m/s - N/A   Overcast
4:54 AM 4.0 °C 2.8 °C 0.0 °C 75% 1000.9 hPa 16.1 km West 5.6 km/h / 1.5 m/s - N/A   Overcast
5:14 AM 4.0 °C 2.8 °C 0.0 °C 75% 1001.2 hPa 16.1 km West 5.6 km/h / 1.5 m/s - N/A   Overcast
5:34 AM 3.0 °C 0.5 °C 0.0 °C 81% 1001.6 hPa 16.1 km West 9.3 km/h / 2.6 m/s - N/A   Overcast
5:54 AM 3.0 °C 0.5 °C 0.0 °C 81% 1001.6 hPa 16.1 km West 9.3 km/h / 2.6 m/s - N/A   Overcast
6:15 AM 3.0 °C 0.5 °C 0.0 °C 81% 1001.6 hPa 16.1 km West 9.3 km/h / 2.6 m/s - N/A   Overcast
6:34 AM 3.0 °C 1.6 °C 0.0 °C 81% 1001.6 hPa 16.1 km West 5.6 km/h / 1.5 m/s - N/A   Overcast
6:54 AM 3.0 °C - 0.0 °C 81% 1001.9 hPa 16.1 km Calm Calm - N/A   Mostly Cloudy
7:14 AM 3.0 °C 1.0 °C 0.0 °C 81% 1001.9 hPa 16.1 km West 7.4 km/h / 2.1 m/s - N/A   Scattered Clouds
7:34 AM 2.0 °C -0.7 °C 0.0 °C 87% 1001.9 hPa 16.1 km West 9.3 km/h / 2.6 m/s - N/A   Scattered Clouds
7:54 AM 3.0 °C 0.5 °C 0.0 °C 81% 1002.3 hPa 16.1 km West 9.3 km/h / 2.6 m/s - N/A   Clear
8:14 AM 3.0 °C 0.5 °C 0.0 °C 81% 1001.9 hPa 16.1 km WNW 9.3 km/h / 2.6 m/s - N/A   Clear
8:34 AM 3.0 °C 1.6 °C 0.0 °C 81% 1001.9 hPa 16.1 km WNW 5.6 km/h / 1.5 m/s - N/A   Clear
8:54 AM 2.0 °C -0.2 °C 0.0 °C 87% 1001.9 hPa 16.1 km WNW 7.4 km/h / 2.1 m/s - N/A   Clear
9:14 AM 3.0 °C 1.0 °C 0.0 °C 81% 1001.9 hPa 16.1 km West 7.4 km/h / 2.1 m/s - N/A   Clear
9:34 AM 3.0 °C 0.5 °C 0.0 °C 81% 1001.6 hPa 16.1 km WNW 9.3 km/h / 2.6 m/s - N/A   Clear
9:54 AM 3.0 °C 0.5 °C -1.0 °C 75% 1001.9 hPa 16.1 km West 9.3 km/h / 2.6 m/s - N/A   Clear
10:14 AM 3.0 °C 0.5 °C -1.0 °C 75% 1002.3 hPa 16.1 km West 9.3 km/h / 2.6 m/s - N/A   Clear
10:34 AM 3.0 °C -0.7 °C -1.0 °C 75% 1001.9 hPa 16.1 km WNW 14.8 km/h / 4.1 m/s - N/A   Clear
10:54 AM 3.0 °C -1.0 °C -1.0 °C 75% 1001.9 hPa 16.1 km NW 16.7 km/h / 4.6 m/s - N/A   Clear
11:14 AM 3.0 °C -0.7 °C -1.0 °C 75% 1001.9 hPa 16.1 km NW 14.8 km/h / 4.1 m/s - N/A   Scattered Clouds
11:34 AM 3.0 °C -0.7 °C -1.0 °C 75% 1001.9 hPa 16.1 km NW 14.8 km/h / 4.1 m/s - N/A   Clear
11:54 AM 3.0 °C -0.7 °C -1.0 °C 75% 1001.6 hPa 16.1 km NW 14.8 km/h / 4.1 m/s - N/A   Scattered Clouds
12:14 PM 3.0 °C -1.2 °C -1.0 °C 75% 1001.6 hPa 16.1 km NW 18.5 km/h / 5.1 m/s - N/A   Scattered Clouds
12:34 PM 3.0 °C -1.7 °C -1.0 °C 75% 1001.6 hPa 16.1 km NW 22.2 km/h / 6.2 m/s - N/A   Clear
12:54 PM 3.0 °C -1.9 °C -1.0 °C 75% 1001.2 hPa 16.1 km NW 24.1 km/h / 6.7 m/s 33.3 km/h / 9.3 m/s N/A   Clear
1:14 PM 2.0 °C -3.6 °C -1.0 °C 81% 1001.2 hPa 16.1 km NW 27.8 km/h / 7.7 m/s - N/A   Clear
1:34 PM 2.0 °C -4.0 °C -1.0 °C 81% 1001.2 hPa 16.1 km NNW 31.5 km/h / 8.7 m/s 38.9 km/h / 10.8 m/s N/A   Scattered Clouds
1:54 PM 0.0 °C -6.6 °C -2.0 °C 87% 1001.6 hPa 16.1 km NW 31.5 km/h / 8.7 m/s 42.6 km/h / 11.8 m/s N/A   Scattered Clouds
2:14 PM -1.0 °C -8.1 °C -2.0 °C 93% 1001.6 hPa 16.1 km NNW 33.3 km/h / 9.3 m/s 44.4 km/h / 12.3 m/s N/A   Overcast
2:34 PM -1.0 °C -8.3 °C -3.0 °C 86% 1001.9 hPa 16.1 km NW 35.2 km/h / 9.8 m/s 42.6 km/h / 11.8 m/s N/A   Overcast
2:54 PM -2.0 °C -9.8 °C -3.0 °C 93% 1002.3 hPa 16.1 km NNW 37.0 km/h / 10.3 m/s 46.3 km/h / 12.9 m/s N/A   Overcast
3:14 PM -2.0 °C -9.9 °C -3.0 °C 93% 1002.6 hPa 16.1 km NW 38.9 km/h / 10.8 m/s 46.3 km/h / 12.9 m/s N/A   Overcast
3:34 PM -3.0 °C -11.4 °C -4.0 °C 93% 1002.9 hPa 11.3 km NW 40.7 km/h / 11.3 m/s 51.9 km/h / 14.4 m/s N/A   Overcast
3:54 PM -3.0 °C -11.4 °C -4.0 °C 93% 1003.3 hPa 11.3 km NW 40.7 km/h / 11.3 m/s 51.9 km/h / 14.4 m/s N/A   Overcast
4:14 PM -5.0 °C -14.3 °C -6.0 °C 93% 1003.6 hPa 11.3 km NNW 42.6 km/h / 11.8 m/s 53.7 km/h / 14.9 m/s N/A   Overcast
4:34 PM -6.0 °C -14.5 °C -7.0 °C 93% 1004.3 hPa 11.3 km NW 31.5 km/h / 8.7 m/s 48.2 km/h / 13.4 m/s N/A   Overcast
4:54 PM -6.0 °C -15.3 °C -8.0 °C 86% 1004.6 hPa 11.3 km NW 38.9 km/h / 10.8 m/s 53.7 km/h / 14.9 m/s N/A Snow Light Snow
5:14 PM -7.0 °C -15.8 °C -8.0 °C 93% 1004.6 hPa 8.0 km NW 31.5 km/h / 8.7 m/s 44.4 km/h / 12.3 m/s N/A Snow Light Snow
5:34 PM -7.0 °C -17.0 °C -9.0 °C 86% 1004.6 hPa 11.3 km NW 42.6 km/h / 11.8 m/s - N/A Snow Light Snow
5:54 PM -7.0 °C -16.8 °C -9.0 °C 86% 1004.6 hPa 16.1 km NW 40.7 km/h / 11.3 m/s 51.9 km/h / 14.4 m/s N/A Snow Light Snow
6:14 PM -7.0 °C -16.2 °C -10.0 °C 80% 1004.6 hPa 11.3 km NW 35.2 km/h / 9.8 m/s 51.9 km/h / 14.4 m/s N/A Snow Light Snow
6:34 PM -7.0 °C -16.4 °C -10.0 °C 80% 1005.0 hPa 11.3 km NW 37.0 km/h / 10.3 m/s 57.4 km/h / 15.9 m/s N/A Snow Light Snow
6:54 PM -8.0 °C -18.5 °C -11.0 °C 79% 1005.0 hPa 16.1 km NW 44.4 km/h / 12.3 m/s 59.3 km/h / 16.5 m/s N/A   Overcast
7:14 PM -8.0 °C -17.5 °C -11.0 °C 79% 1005.0 hPa 16.1 km NW 35.2 km/h / 9.8 m/s 50.0 km/h / 13.9 m/s N/A Snow Light Snow
7:34 PM -7.0 °C -16.0 °C -10.0 °C 80% 1005.0 hPa 16.1 km NW 33.3 km/h / 9.3 m/s 51.9 km/h / 14.4 m/s N/A Snow Light Snow
7:54 PM -8.0 °C -18.3 °C -11.0 °C 79% 1005.0 hPa 16.1 km NW 42.6 km/h / 11.8 m/s 55.6 km/h / 15.4 m/s N/A Snow Light Snow
8:14 PM -8.0 °C -17.1 °C -11.0 °C 79% 1005.0 hPa 11.3 km NW 31.5 km/h / 8.7 m/s 40.7 km/h / 11.3 m/s N/A Snow Light Snow
8:34 PM -8.0 °C -16.6 °C -11.0 °C 79% 1005.0 hPa 16.1 km NW 27.8 km/h / 7.7 m/s 42.6 km/h / 11.8 m/s N/A Snow Light Snow
8:54 PM -8.0 °C -17.3 °C -11.0 °C 79% 1005.0 hPa 8.0 km WNW 33.3 km/h / 9.3 m/s 48.2 km/h / 13.4 m/s N/A Snow Light Snow
9:14 PM -9.0 °C -19.1 °C -12.0 °C 79% 1005.0 hPa 16.1 km NW 37.0 km/h / 10.3 m/s 51.9 km/h / 14.4 m/s N/A Snow Light Snow
9:34 PM -9.0 °C -18.6 °C -12.0 °C 79% 1005.0 hPa 16.1 km NW 33.3 km/h / 9.3 m/s 48.2 km/h / 13.4 m/s N/A   Overcast
9:54 PM -9.0 °C -19.3 °C -12.0 °C 79% 1004.6 hPa 16.1 km NW 38.9 km/h / 10.8 m/s 50.0 km/h / 13.9 m/s N/A   Mostly Cloudy
10:14 PM -9.0 °C -19.3 °C -12.0 °C 79% 1004.6 hPa 16.1 km NW 38.9 km/h / 10.8 m/s 48.2 km/h / 13.4 m/s N/A   Mostly Cloudy
10:34 PM -9.0 °C -18.8 °C -13.0 °C 73% 1004.3 hPa 16.1 km NW 35.2 km/h / 9.8 m/s 50.0 km/h / 13.9 m/s N/A   Mostly Cloudy
10:54 PM -10.0 °C -19.7 °C -13.0 °C 79% 1004.3 hPa 16.1 km NW 31.5 km/h / 8.7 m/s 44.4 km/h / 12.3 m/s N/A   Scattered Clouds
11:14 PM -10.0 °C -19.7 °C -13.0 °C 79% 1003.9 hPa 16.1 km NW 31.5 km/h / 8.7 m/s 44.4 km/h / 12.3 m/s N/A   Clear
11:34 PM -10.0 °C -19.9 °C -13.0 °C 79% 1003.6 hPa 16.1 km NW 33.3 km/h / 9.3 m/s 44.4 km/h / 12.3 m/s N/A   Clear
11:54 PM -11.0 °C -21.3 °C -13.0 °C 85% 1003.6 hPa 16.1 km NW 33.3 km/h / 9.3 m/s 42.6 km/h / 11.8 m/s N/A   Clear